Simultaneous Nadir Overpasses (SNOs) Predictions

Prediction of SNOs between LANDSAT-8 and METOP-A Satellite Orbit:

Table of predicted SNOs for the next 14.0 days since TLE Epoch: 5/30/2014
Index Date (LANDSAT-8) Time (LANDSAT-8) Lat,Lon (LANDSAT-8) SZA (LANDSAT-8 ) Date (METOP-A) Time (METOP-A) Lat,Lon (METOP-A) SZA (METOP-A ) Distance(km) Time Diff (sec)
1 05/31/2014 05:58:19 81.09, 129.80 61.36 05/31/2014 05:57:41 81.09, 129.66 61.33 2.41 38
2 05/31/2014 06:47:45 -81.11, -62.26 118.60 05/31/2014 06:48:19 -81.12, -62.14 118.57 2.25 34
3 06/03/2014 01:32:36 81.09,-163.68 60.99 06/03/2014 01:32:03 81.09,-163.84 60.96 2.73 33
4 06/03/2014 02:22:02 -81.11, 4.28 118.97 06/03/2014 02:22:41 -81.12, 4.38 118.94 1.83 39
5 06/05/2014 21:06:53 81.10, -97.21 60.66 06/05/2014 21:06:25 81.09, -97.37 60.63 2.74 28
6 06/05/2014 21:56:19 -81.12, 70.77 119.29 06/05/2014 21:57:03 -81.12, 70.88 119.26 1.87 44
7 06/08/2014 16:41:09 81.10, -30.79 60.38 06/08/2014 16:40:46 81.09, -30.93 60.35 2.42 23
8 06/08/2014 17:30:35 -81.12, 137.21 119.58 06/08/2014 17:31:24 -81.12, 137.34 119.54 2.32 49
9 06/11/2014 12:15:26 81.09, 35.59 60.14 06/11/2014 12:15:08 81.09, 35.49 60.12 1.79 18




NCC Satellite Simultaneous Nadir Overpasses (SNOs) Prediction Service
